DELTA 1 DEB, 3123

Orbit data source: Space-Track

DELTA 1 DEB, 3123 is space debris in SSO originally from a launch on Fri, 10 Nov 1967 UTC launched from the Air Force Western Test Range (AFWTR). Debris objects in space refer to the collection of defunct objects orbiting the Earth. Examples of debris include non-operational satellites, rocket bodies, and fragments generated from explosions, collisions, or faulty payload assembly.

Loading next visibility...
Identifier
3123, 1967-114D
Orbit
SSO
Country
Flag of USUS
Related business
Manufacturer
Unknown
Mission
Spacecraft
Bus & Motor
Unknown
Mass
Unknown
Launch date (UTC)
1967-11-10 (58 years ago)
Launch vehicle
Unknown
Launch site
Air Force Western Test Range (AFWTR)
Object type
Payload
Rocket body
Debris
Shape & HBR
Unknown shape, 0.1 m
Radar Cross Section
Small (<0.1 m²)

Expand to show TLE details & history
Last TLE update: 8 hours ago

TLE from 8 hours ago
0 DELTA 1 DEB
1  3123U 67114D   25289.05049491 -.00000012  00000-0  24514-3 0  9999
2  3123 102.4447  49.6674 0028163 352.5099  60.7655 12.48095724638303
Epoch: 2025-10-16T01:12Z
TLE epoch observation values (Epoch: 2025-10-16T01:12:42.760Z)
Latitude
51.86681°
Longitude
-9.5707°
Altitude
1,469.858 km
Speed
7.138 km/s
True Right ascension
02h 13m 41s
True Declination
51° 42' 53"
Sunlit
Object was in full shadow at epoch
Visualization orbit readout
Latitude
Unknown
Longitude
Unknown
Altitude
Unknown
Speed
Unknown
Apparent Right ascension
Unknown
Apparent Declination
Unknown
Sunlit
N/A
Visualization observer readout
Local Sidereal Time
03:59:21
Azimuth
Unknown
Elevation
Unknown
Doppler factor
Unknown
Orbital elements
Apogee altitude
1,492.164 km
Perigee altitude
1,447.958 km
Semi-major axis
7,848.198 km
Eccentricity
0.00282
Inclination
102.4447°
RAAN
49.6674°
Arg. of periapsis
352.5099°
True anomaly
61.0476°
Mean anomaly
60.7655°
Eccentric anomaly
60.9065°
Mean motion
3.12168 °/min
Orbital period
115.32 mins
BSTAR
0.00024514
Loading maneuver chart data...
Computing Atmospheric mass density...
Loading historical data...
Loading historical data...
Loading historical data...
Loading historical data...
Loading historical data...
Loading historical data...
Loading historical data...
Other satellites on launch #114 in the year 1967 (1967-11-10 UTC)

Documentation

Showing up to 5 results
|